�������C�����ː����j�^�v���󋵏��
Date,Time,Cs137(Bq/L),Cs134(Bq/L),�S��(Bq/L)
2017/03/23,00:00,0.70,0.026,ND
2017/03/23,00:10,0.73,ND,ND
2017/03/23,00:20,0.73,ND,10
2017/03/23,00:30,0.72,ND,10
2017/03/23,00:40,0.69,0.025,12
2017/03/23,00:50,0.59,0.053,9.0
2017/03/23,01:00,0.59,0.055,9.7
2017/03/23,01:10,0.59,0.054,ND
2017/03/23,01:20,0.60,0.054,ND
2017/03/23,01:30,0.60,0.062,9.9
2017/03/23,01:40,0.60,0.064,ND
2017/03/23,01:50,0.59,0.081,9.2
2017/03/23,02:00,0.62,0.073,11
2017/03/23,02:10,0.62,0.080,11
2017/03/23,02:20,0.70,0.049,11
2017/03/23,02:30,0.73,0.041,ND
2017/03/23,02:40,0.74,0.037,ND
2017/03/23,02:50,0.73,0.027,ND
2017/03/23,03:00,0.75,0.027,ND
2017/03/23,03:10,0.74,0.027,ND
2017/03/23,03:20,0.81,ND,ND
2017/03/23,03:30,0.75,0.031,ND
2017/03/23,03:40,0.75,0.031,ND
2017/03/23,03:50,0.74,0.042,ND
2017/03/23,04:00,0.75,0.031,ND
2017/03/23,04:10,0.75,0.035,ND
2017/03/23,04:20,0.74,0.036,ND
2017/03/23,04:30,0.79,ND,ND
2017/03/23,04:40,0.78,ND,9.5
2017/03/23,04:50,0.78,ND,ND
2017/03/23,05:00,0.78,ND,ND
2017/03/23,05:10,0.77,ND,9.7
2017/03/23,05:20,0.65,0.053,9.9
2017/03/23,05:30,0.68,0.052,11
2017/03/23,05:40,0.68,0.063,9.5
2017/03/23,05:50,0.69,0.063,11
2017/03/23,06:00,0.66,0.068,9.3
2017/03/23,06:10,0.70,0.061,ND
2017/03/23,06:20,0.70,0.061,ND
2017/03/23,06:30,0.68,0.063,ND
2017/03/23,06:40,0.68,0.065,ND
2017/03/23,06:50,0.66,0.068,ND
2017/03/23,07:00,0.67,0.066,ND
2017/03/23,07:10,0.64,0.070,ND
2017/03/23,07:20,0.65,0.071,ND
2017/03/23,07:30,0.63,0.080,ND
2017/03/23,07:40,0.65,0.070,ND
2017/03/23,07:50,0.66,0.070,ND
2017/03/23,08:00,0.68,0.071,ND
2017/03/23,08:10,0.69,0.067,ND
2017/03/23,08:20,0.69,0.070,ND
2017/03/23,08:30,0.72,0.060,ND
2017/03/23,08:40,0.78,0.029,8.8
2017/03/23,08:50,0.68,0.067,9.2
2017/03/23,09:00,0.75,0.034,9.0
2017/03/23,09:10,0.77,0.029,ND
2017/03/23,09:20,0.79,ND,8.9
2017/03/23,09:30,0.67,0.044,8.8
2017/03/23,09:40,0.65,0.054,ND
2017/03/23,09:50,0.79,ND,ND
2017/03/23,10:00,0.79,ND,ND
2017/03/23,10:10,0.66,0.051,ND
2017/03/23,10:20,0.66,0.052,ND
2017/03/23,10:30,0.67,0.056,ND
2017/03/23,10:40,0.66,0.062,9.5
2017/03/23,10:50,0.68,0.051,9.2
2017/03/23,11:00,0.67,0.059,ND
2017/03/23,11:10,0.77,0.031,9.3
2017/03/23,11:20,0.77,0.036,ND
2017/03/23,11:30,0.67,0.066,10
2017/03/23,11:40,0.81,0.033,8.9
2017/03/23,11:50,0.78,0.037,ND
2017/03/23,12:00,0.80,0.032,9.3
2017/03/23,12:10,0.79,0.030,ND
2017/03/23,12:20,0.79,0.037,ND
2017/03/23,12:30,0.79,0.039,9.9
2017/03/23,12:40,0.69,0.059,9.3
2017/03/23,12:50,0.70,0.061,ND
2017/03/23,13:00,0.70,0.059,ND
2017/03/23,13:10,0.71,0.058,ND
2017/03/23,13:20,0.72,0.056,9.3
2017/03/23,13:30,0.71,0.061,ND
2017/03/23,13:40,0.73,0.060,ND
2017/03/23,13:50,0.85,ND,9.9
2017/03/23,14:00,0.83,0.033,13
2017/03/23,14:10,0.74,0.068,10
2017/03/23,14:20,0.83,0.030,10
2017/03/23,14:30,0.82,0.038,13
2017/03/23,14:40,0.81,0.047,13
2017/03/23,14:50,0.73,0.080,11
2017/03/23,15:00,0.75,0.085,10
2017/03/23,15:10,0.75,0.079,9.6
2017/03/23,15:20,0.75,0.076,ND
2017/03/23,15:30,0.77,0.072,ND
2017/03/23,15:40,0.80,0.073,ND
2017/03/23,15:50,0.78,0.079,ND
2017/03/23,16:00,0.79,0.074,ND
2017/03/23,16:10,0.77,0.074,ND
2017/03/23,16:20,0.79,0.074,ND
2017/03/23,16:30,0.79,0.069,ND
2017/03/23,16:40,0.76,0.064,ND
2017/03/23,16:50,0.74,0.064,ND
2017/03/23,17:00,0.72,0.054,ND
2017/03/23,17:10,-,-,-
2017/03/23,17:20,-,-,-
2017/03/23,17:30,0.69,0.060,-
2017/03/23,17:40,0.67,0.066,-
2017/03/23,17:50,-,-,-
2017/03/23,18:00,0.64,0.071,-
2017/03/23,18:10,0.66,0.068,-
2017/03/23,18:20,0.65,0.075,-
2017/03/23,18:30,0.63,0.075,-
2017/03/23,18:40,0.66,0.070,-
2017/03/23,18:50,0.69,0.065,-
2017/03/23,19:00,0.70,0.060,-
2017/03/23,19:10,0.85,ND,-
2017/03/23,19:20,0.82,0.027,-
2017/03/23,19:30,0.82,0.026,-
2017/03/23,19:40,0.81,0.029,-
2017/03/23,19:50,0.85,ND,-
2017/03/23,20:00,0.81,0.033,-
2017/03/23,20:10,0.81,0.028,-
2017/03/23,20:20,0.84,ND,-
2017/03/23,20:30,0.80,0.026,-
2017/03/23,20:40,0.82,ND,-
2017/03/23,20:50,0.77,0.027,-
2017/03/23,21:00,0.66,0.059,-
2017/03/23,21:10,0.64,0.061,-
2017/03/23,21:20,0.64,0.061,-
2017/03/23,21:30,0.64,0.057,-
2017/03/23,21:40,0.65,0.062,-
2017/03/23,21:50,0.66,0.062,-
2017/03/23,22:00,0.75,0.035,-
2017/03/23,22:10,0.77,0.043,-
2017/03/23,22:20,0.77,0.043,-
2017/03/23,22:30,0.78,0.048,-
2017/03/23,22:40,0.76,0.051,-
2017/03/23,22:50,0.65,0.085,-
2017/03/23,23:00,0.65,0.092,-
2017/03/23,23:10,0.68,0.083,-
2017/03/23,23:20,0.68,0.082,-
2017/03/23,23:30,0.67,0.081,-
2017/03/23,23:40,0.66,0.079,-
2017/03/23,23:50,0.67,0.085,-
